| time (UTC) | temp C | wind direction | speed KPH | gust KPH | rain 1hr cm | rain 24hr cm | rain mn cm | humidity % | barometer mb |
| 20260505220935 | 28 | 28 | 0.0 | 20.9 | 0.00 | 0.00 | 0.00 | 83 | 1009.5 |
| 20260505220844 | 27 | 0 | 16.1 | 20.9 | 0.00 | 0.00 | 0.00 | 84 | 1009.4 |
| 20260505220320 | 27 | 22 | 8.0 | 16.1 | 0.00 | 0.00 | 0.00 | 83 | 1009.6 |
| 20260505215414 | 27 | 20 | 0.0 | 12.9 | 0.00 | 0.00 | 0.00 | 83 | 1009.4 |
| 20260505214903 | 27 | 0 | 0.0 | 12.9 | 0.00 | 0.00 | 0.00 | 83 | 1009.1 |
| 20260505214352 | 27 | 7 | 0.0 | 8.0 | 0.00 | 0.00 | 0.00 | 83 | 1009.1 |
| 20260505213830 | 27 | 353 | 0.0 | 12.9 | 0.00 | 0.00 | 0.00 | 83 | 1009.2 |
| 20260505213328 | 27 | 325 | 8.0 | 12.9 | 0.00 | 0.00 | 0.00 | 83 | 1009.2 |
| 20260505212805 | 28 | 13 | 4.8 | 12.9 | 0.00 | 0.00 | 0.00 | 82 | 1009.2 |
| 20260505212251 | 28 | 4 | 4.8 | 12.9 | 0.00 | 0.00 | 0.00 | 82 | 1008.9 |
| 20260505211731 | 28 | 22 | 3.2 | 8.0 | 0.00 | 0.00 | 0.00 | 82 | 1009.0 |
| 20260505211216 | 28 | 23 | 1.6 | 8.0 | 0.00 | 0.00 | 0.00 | 82 | 1009.2 |
| 20260505210708 | 28 | 26 | 3.2 | 8.0 | 0.00 | 0.00 | 0.00 | 82 | 1009.3 |
| 20260505210206 | 28 | 24 | 3.2 | 8.0 | 0.00 | 0.00 | 0.00 | 81 | 1009.0 |
| 20260505205652 | 28 | 27 | 0.0 | 3.2 | 0.00 | 0.00 | 0.00 | 82 | 1008.9 |
| 20260505205308 | 28 | 24 | 0.0 | 8.0 | 0.00 | 0.00 | 0.00 | 81 | 1008.9 |
| 20260505204457 | 28 | 11 | 3.2 | 16.1 | 0.00 | 0.00 | 0.00 | 81 | 1008.6 |
| 20260505203626 | 28 | 13 | 1.6 | 16.1 | 0.00 | 0.00 | 0.00 | 81 | 1008.6 |
| 20260505203117 | 28 | 24 | 4.8 | 12.9 | 0.00 | 0.00 | 0.00 | 81 | 1008.7 |
| 20260505202938 | 28 | 0 | 8.0 | 12.9 | 0.00 | 0.00 | 0.00 | 81 | 1008.7 |
| 20260505202035 | 28 | 25 | 0.0 | 8.0 | 0.00 | 0.00 | 0.00 | 81 | 1008.7 |
| 20260505201529 | 28 | 11 | 3.2 | 12.9 | 0.00 | 0.00 | 0.00 | 81 | 1008.4 |
| 20260505201401 | 28 | 93 | 3.2 | 12.9 | 0.00 | 0.00 | 0.00 | 80 | 1008.9 |
| 20260505200514 | 28 | 42 | 1.6 | 8.0 | 0.00 | 0.00 | 0.00 | 81 | 1008.6 |
| 20260505200005 | 28 | 26 | 0.0 | 3.2 | 0.00 | 0.00 | 0.00 | 81 | 1008.7 |
| 20260505195449 | 28 | 13 | 3.2 | 3.2 | 0.00 | 0.00 | 0.00 | 82 | 1008.5 |
| 20260505194936 | 28 | 32 | 0.0 | 8.0 | 0.00 | 0.00 | 0.00 | 83 | 1008.5 |
| 20260505194435 | 28 | 37 | 1.6 | 8.0 | 0.00 | 0.00 | 0.00 | 83 | 1008.5 |
| 20260505194032 | 28 | 30 | 0.0 | 8.0 | 0.00 | 0.00 | 0.00 | 83 | 1008.4 |
| 20260505192903 | 28 | 38 | 0.0 | 12.9 | 0.00 | 0.00 | 0.00 | 83 | 1008.2 |
| 20260505192357 | 28 | 69 | 6.4 | 12.9 | 0.00 | 0.00 | 0.00 | 83 | 1008.4 |
| 20260505191848 | 28 | 345 | 0.0 | 8.0 | 0.00 | 0.00 | 0.00 | 83 | 1008.3 |
| 20260505191721 | 28 | 66 | 4.8 | 8.0 | 0.00 | 0.00 | 0.00 | 83 | 1008.1 |
| 20260505190835 | 28 | 31 | 0.0 | 3.2 | 0.00 | 0.00 | 0.00 | 83 | 1008.1 |
| 20260505190325 | 28 | 1 | 0.0 | 3.2 | 0.00 | 0.00 | 0.00 | 83 | 1008.2 |
| 20260505190205 | 28 | 55 | 0.0 | 3.2 | 0.00 | 0.00 | 0.00 | 83 | 1008.2 |
| 20260505185310 | 28 | 18 | 0.0 | 8.0 | 0.00 | 0.00 | 0.00 | 82 | 1008.1 |
| 20260505184759 | 28 | 265 | 1.6 | 8.0 | 0.00 | 0.00 | 0.00 | 82 | 1008.1 |
| 20260505184427 | 28 | 31 | 0.0 | 8.0 | 0.00 | 0.00 | 0.00 | 81 | 1008.2 |
| 20260505183239 | 28 | 349 | 1.6 | 12.9 | 0.00 | 0.00 | 0.00 | 82 | 1008.3 |
| 20260505182728 | 28 | 31 | 0.0 | 16.1 | 0.00 | 0.00 | 0.00 | 82 | 1008.5 |
| 20260505182220 | 28 | 177 | 0.0 | 16.1 | 0.00 | 0.00 | 0.00 | 82 | 1008.2 |
| 20260505181716 | 28 | 31 | 0.0 | 16.1 | 0.00 | 0.00 | 0.00 | 82 | 1008.3 |
| 20260505181205 | 28 | 12 | 0.0 | 16.1 | 0.00 | 0.00 | 0.00 | 81 | 1008.2 |
| 20260505181041 | 28 | 26 | 0.0 | 24.1 | 0.00 | 0.00 | 0.00 | 81 | 1008.6 |
| 20260505180137 | 28 | 44 | 0.0 | 24.1 | 0.00 | 0.00 | 0.00 | 81 | 1008.6 |
| 20260505175631 | 28 | 150 | 3.2 | 27.4 | 0.00 | 0.00 | 0.00 | 81 | 1008.4 |
| 20260505175124 | 28 | 39 | 0.0 | 27.4 | 0.00 | 0.00 | 0.00 | 80 | 1008.6 |
| 20260505174616 | 28 | 12 | 3.2 | 27.4 | 0.00 | 0.00 | 0.00 | 80 | 1008.8 |
| 20260505174109 | 28 | 23 | 0.0 | 27.4 | 0.00 | 0.00 | 0.00 | 79 | 1008.9 |
| 20260505173553 | 29 | 9 | 0.0 | 24.1 | 0.00 | 0.00 | 0.00 | 79 | 1008.8 |
| 20260505173428 | 29 | 58 | 6.4 | 24.1 | 0.00 | 0.00 | 0.00 | 79 | 1008.9 |
| 20260505172531 | 29 | 63 | 4.8 | 24.1 | 0.00 | 0.00 | 0.00 | 79 | 1008.9 |
| 20260505172024 | 29 | 52 | 0.0 | 24.1 | 0.00 | 0.00 | 0.00 | 79 | 1008.9 |
| 20260505171518 | 29 | 27 | 0.0 | 24.1 | 0.00 | 0.00 | 0.00 | 79 | 1009.0 |
| 20260505171000 | 29 | 347 | 0.0 | 24.1 | 0.00 | 0.00 | 0.00 | 79 | 1009.0 |
| 20260505170448 | 29 | 24 | 0.0 | 24.1 | 0.00 | 0.00 | 0.00 | 78 | 1009.1 |
| 20260505165945 | 29 | 34 | 0.0 | 20.9 | 0.00 | 0.00 | 0.00 | 78 | 1009.1 |
| 20260505165853 | 29 | 357 | 3.2 | 16.1 | 0.00 | 0.00 | 0.00 | 78 | 1008.9 |
| 20260505165308 | 29 | 50 | 0.0 | 16.1 | 0.00 | 0.00 | 0.00 | 78 | 1008.9 |
| 20260505164411 | 29 | 47 | 0.0 | 8.0 | 0.00 | 0.00 | 0.00 | 78 | 1009.0 |
| 20260505163858 | 29 | 115 | 0.0 | 20.9 | 0.00 | 0.00 | 0.00 | 77 | 1009.2 |
| 20260505163348 | 29 | 34 | 0.0 | 20.9 | 0.00 | 0.00 | 0.00 | 78 | 1009.3 |
| 20260505162841 | 29 | 206 | 4.8 | 12.9 | 0.00 | 0.00 | 0.00 | 77 | 1009.2 |
| 20260505162333 | 29 | 352 | 1.6 | 8.0 | 0.00 | 0.00 | 0.00 | 76 | 1009.1 |
| 20260505161823 | 29 | 56 | 0.0 | 12.9 | 0.00 | 0.00 | 0.00 | 76 | 1009.1 |
| 20260505161320 | 29 | 7 | 0.0 | 27.4 | 0.00 | 0.00 | 0.00 | 76 | 1009.3 |
| 20260505161136 | 29 | 48 | 1.6 | 27.4 | 0.00 | 0.00 | 0.00 | 75 | 1009.4 |
| 20260505160305 | 30 | 59 | 1.6 | 12.9 | 0.00 | 0.00 | 0.00 | 75 | 1009.5 |
| 20260505160118 | 30 | 38 | 3.2 | 12.9 | 0.00 | 0.00 | 0.00 | 75 | 1009.4 |
| 20260505153154 | 30 | 47 | 0.0 | 16.1 | 0.00 | 0.00 | 0.00 | 75 | 1009.6 |
| 20260505153013 | 30 | 351 | 0.0 | 24.1 | 0.00 | 0.00 | 0.00 | 75 | 1009.7 |
| 20260505152124 | 30 | 57 | 0.0 | 24.1 | 0.00 | 0.00 | 0.00 | 75 | 1009.6 |
| 20260505151605 | 30 | 245 | 0.0 | 16.1 | 0.00 | 0.00 | 0.00 | 75 | 1009.5 |
| 20260505151057 | 30 | 33 | 0.0 | 8.0 | 0.00 | 0.00 | 0.00 | 75 | 1009.5 |
| 20260505150551 | 30 | 335 | 0.0 | 8.0 | 0.00 | 0.00 | 0.00 | 75 | 1009.7 |
| 20260505140354 | 30 | 37 | 0.0 | 16.1 | 0.00 | 0.00 | 0.00 | 76 | 1009.8 |
| 20260505130126 | 30 | 57 | 0.0 | 16.1 | 0.00 | 0.00 | 0.00 | 75 | 1009.3 |
| 20260505125038 | 30 | 38 | 0.0 | 8.0 | 0.00 | 0.00 | 0.00 | 77 | 1009.3 |
| 20260505124523 | 30 | 32 | 0.0 | 12.9 | 0.00 | 0.00 | 0.00 | 77 | 1009.1 |
| 20260505124013 | 30 | 49 | 0.0 | 12.9 | 0.00 | 0.00 | 0.00 | 77 | 1009.2 |
| 20260505123522 | 30 | 59 | 1.6 | 12.9 | 0.00 | 0.00 | 0.00 | 77 | 1009.3 |
| 20260505123002 | 30 | 31 | 0.0 | 16.1 | 0.00 | 0.00 | 0.00 | 77 | 1009.3 |
| 20260505122903 | 30 | 39 | 0.0 | 27.4 | 0.00 | 0.00 | 0.00 | 77 | 1009.3 |
| 20260505121932 | 30 | 56 | 4.8 | 27.4 | 0.00 | 0.00 | 0.00 | 77 | 1009.2 |
| 20260505121426 | 30 | 43 | 0.0 | 20.9 | 0.00 | 0.00 | 0.00 | 77 | 1009.3 |
| 20260505120918 | 30 | 30 | 0.0 | 37.0 | 0.00 | 0.00 | 0.00 | 77 | 1009.3 |
| 20260505120410 | 30 | 68 | 19.3 | 37.0 | 0.00 | 0.00 | 0.00 | 77 | 1009.1 |
| 20260505115907 | 30 | 5 | 1.6 | 37.0 | 0.00 | 0.00 | 0.00 | 77 | 1008.9 |
| 20260505115355 | 30 | 88 | 6.4 | 37.0 | 0.00 | 0.00 | 0.00 | 77 | 1008.8 |
| 20260505114846 | 30 | 30 | 0.0 | 53.1 | 0.00 | 0.00 | 0.00 | 77 | 1008.7 |
| 20260505114340 | 29 | 60 | 8.0 | 53.1 | 0.00 | 0.00 | 0.00 | 77 | 1008.7 |
| 20260505113829 | 30 | 82 | 9.7 | 32.2 | 0.00 | 0.00 | 0.00 | 77 | 1008.5 |
| 20260505113330 | 30 | 76 | 8.0 | 40.2 | 0.00 | 0.00 | 0.00 | 77 | 1008.5 |
| 20260505112807 | 30 | 77 | 22.5 | 40.2 | 0.00 | 0.00 | 0.00 | 77 | 1008.4 |
| 20260505112259 | 30 | 17 | 1.6 | 37.0 | 0.00 | 0.00 | 0.00 | 77 | 1008.3 |
| 20260505112140 | 30 | 51 | 19.3 | 37.0 | 0.00 | 0.00 | 0.00 | 77 | 1008.6 |
| 20260505111247 | 30 | 58 | 9.7 | 32.2 | 0.00 | 0.00 | 0.00 | 77 | 1008.6 |
| 20260505110731 | 30 | 48 | 1.6 | 20.9 | 0.00 | 0.00 | 0.00 | 77 | 1008.6 |
| 20260505110224 | 30 | 70 | 3.2 | 20.9 | 0.00 | 0.00 | 0.00 | 77 | 1008.4 |
| 20260505102133 | 31 | 46 | 17.7 | 24.1 | 0.00 | 0.00 | 0.00 | 76 | 1007.9 |
| 20260505101630 | 31 | 45 | 6.4 | 24.1 | 0.00 | 0.00 | 0.00 | 75 | 1008.0 |
| 20260505101125 | 31 | 23 | 0.0 | 24.1 | 0.00 | 0.00 | 0.00 | 75 | 1008.1 |
| 20260505100600 | 31 | 35 | 9.7 | 24.1 | 0.00 | 0.00 | 0.00 | 74 | 1008.0 |
| 20260505095558 | 31 | 61 | 14.5 | 20.9 | 0.00 | 0.00 | 0.00 | 73 | 1007.9 |
| 20260505095044 | 31 | 67 | 3.2 | 16.1 | 0.00 | 0.00 | 0.00 | 73 | 1007.9 |
| 20260505094539 | 31 | 67 | 9.7 | 16.1 | 0.00 | 0.00 | 0.00 | 73 | 1007.8 |
| 20260505094025 | 31 | 64 | 1.6 | 16.1 | 0.00 | 0.00 | 0.00 | 73 | 1007.6 |
| 20260505093914 | 31 | 69 | 1.6 | 12.9 | 0.00 | 0.00 | 0.00 | 73 | 1007.4 |
| 20260505093350 | 31 | 339 | 3.2 | 12.9 | 0.00 | 0.00 | 0.00 | 73 | 1007.4 |
| 20260505092457 | 31 | 163 | 1.6 | 24.1 | 0.00 | 0.00 | 0.00 | 72 | 1007.4 |
| 20260505091934 | 31 | 317 | 3.2 | 32.2 | 0.00 | 0.00 | 0.00 | 72 | 1007.5 |
| 20260505091433 | 32 | 37 | 0.0 | 16.1 | 0.00 | 0.00 | 0.00 | 71 | 1007.1 |
| 20260505091422 | 32 | 61 | 4.8 | 20.9 | 0.00 | 0.00 | 0.00 | 71 | 1007.1 |
| 20260505090833 | 31 | 281 | 0.0 | 27.4 | 0.00 | 0.00 | 0.00 | 71 | 1007.3 |
| 20260505090254 | 31 | 36 | 6.4 | 27.4 | 0.00 | 0.00 | 0.00 | 72 | 1007.2 |
| 20260505085349 | 32 | 82 | 8.0 | 24.1 | 0.00 | 0.00 | 0.00 | 72 | 1007.1 |
| 20260505085208 | 32 | 42 | 9.7 | 24.1 | 0.00 | 0.00 | 0.00 | 71 | 1007.0 |
| 20260505084314 | 32 | 81 | 1.6 | 27.4 | 0.00 | 0.00 | 0.00 | 71 | 1007.2 |
| 20260505084204 | 32 | 71 | 14.5 | 27.4 | 0.00 | 0.00 | 0.00 | 71 | 1007.2 |
| 20260505083300 | 32 | 15 | 1.6 | 12.9 | 0.00 | 0.00 | 0.00 | 71 | 1007.2 |
| 20260505082755 | 32 | 5 | 0.0 | 12.9 | 0.00 | 0.00 | 0.00 | 72 | 1007.1 |
| 20260505082701 | 32 | 354 | 3.2 | 20.9 | 0.00 | 0.00 | 0.00 | 71 | 1007.1 |
| 20260505081734 | 32 | 10 | 6.4 | 27.4 | 0.00 | 0.00 | 0.00 | 71 | 1007.0 |
| 20260505081225 | 32 | 9 | 11.3 | 40.2 | 0.00 | 0.00 | 0.00 | 71 | 1007.0 |
| 20260505080723 | 33 | 261 | 24.1 | 37.0 | 0.00 | 0.00 | 0.00 | 70 | 1007.0 |
| 20260505080645 | 33 | 351 | 12.9 | 40.2 | 0.00 | 0.00 | 0.00 | 68 | 1007.2 |
| 20260505075639 | 33 | 301 | 16.1 | 40.2 | 0.00 | 0.00 | 0.00 | 68 | 1006.8 |
| 20260505075136 | 33 | 328 | 24.1 | 27.4 | 0.00 | 0.00 | 0.00 | 68 | 1006.8 |
| 20260505074629 | 33 | 315 | 12.9 | 32.2 | 0.00 | 0.00 | 0.00 | 68 | 1006.8 |
| 20260505074117 | 33 | 348 | 9.7 | 32.2 | 0.00 | 0.00 | 0.00 | 68 | 1006.9 |
| 20260505073801 | 33 | 336 | 11.3 | 24.1 | 0.00 | 0.00 | 0.00 | 68 | 1006.9 |
| 20260505072551 | 32 | 30 | 6.4 | 24.1 | 0.00 | 0.00 | 0.00 | 70 | 1007.1 |
| 20260505072034 | 32 | 9 | 4.8 | 20.9 | 0.00 | 0.00 | 0.00 | 72 | 1007.1 |
| 20260505071533 | 31 | 325 | 9.7 | 20.9 | 0.00 | 0.00 | 0.00 | 73 | 1007.3 |
| 20260505071414 | 32 | 335 | 1.6 | 20.9 | 0.00 | 0.00 | 0.00 | 73 | 1007.2 |
| 20260505070516 | 31 | 331 | 6.4 | 32.2 | 0.00 | 0.00 | 0.00 | 74 | 1007.3 |
| 20260505070003 | 31 | 24 | 0.0 | 32.2 | 0.00 | 0.00 | 0.00 | 75 | 1007.4 |
| 20260505065507 | 31 | 18 | 11.3 | 27.4 | 0.00 | 0.00 | 0.00 | 74 | 1007.3 |
| 20260505064947 | 32 | 323 | 20.9 | 27.4 | 0.00 | 0.00 | 0.00 | 74 | 1007.2 |
| 20260505064447 | 32 | 319 | 3.2 | 24.1 | 0.00 | 0.00 | 0.00 | 74 | 1007.5 |
| 20260505063929 | 31 | 8 | 14.5 | 24.1 | 0.00 | 0.00 | 0.00 | 74 | 1007.4 |
| 20260505063423 | 31 | 312 | 9.7 | 20.9 | 0.00 | 0.00 | 0.00 | 73 | 1007.6 |
| 20260505062917 | 31 | 0 | 0.0 | 24.1 | 0.00 | 0.00 | 0.00 | 74 | 1007.7 |
| 20260505062414 | 31 | 5 | 0.0 | 27.4 | 0.00 | 0.00 | 0.00 | 74 | 1007.7 |
| 20260505061902 | 31 | 308 | 19.3 | 27.4 | 0.00 | 0.00 | 0.00 | 74 | 1007.4 |
| 20260505061723 | 31 | 313 | 20.9 | 27.4 | 0.00 | 0.00 | 0.00 | 74 | 1007.5 |
| 20260505060830 | 31 | 13 | 4.8 | 20.9 | 0.00 | 0.00 | 0.00 | 73 | 1007.4 |
| 20260505060325 | 31 | 26 | 0.0 | 20.9 | 0.00 | 0.00 | 0.00 | 74 | 1007.7 |
| 20260505055815 | 31 | 37 | 0.0 | 32.2 | 0.00 | 0.00 | 0.00 | 73 | 1007.4 |
| 20260505055257 | 32 | 46 | 1.6 | 32.2 | 0.00 | 0.00 | 0.00 | 74 | 1007.7 |
| 20260505054759 | 32 | 7 | 16.1 | 32.2 | 0.00 | 0.00 | 0.00 | 73 | 1007.7 |
| 20260505054241 | 32 | 203 | 17.7 | 27.4 | 0.00 | 0.00 | 0.00 | 71 | 1007.7 |
| 20260505053730 | 33 | 37 | 1.6 | 27.4 | 0.00 | 0.00 | 0.00 | 71 | 1007.8 |
| 20260505053227 | 34 | 272 | 3.2 | 20.9 | 0.00 | 0.00 | 0.00 | 68 | 1007.9 |
| 20260505052706 | 33 | 5 | 3.2 | 16.1 | 0.00 | 0.00 | 0.00 | 70 | 1008.1 |
| 20260505052146 | 33 | 293 | 3.2 | 27.4 | 0.00 | 0.00 | 0.00 | 70 | 1008.0 |
| 20260505051726 | 33 | 60 | 1.6 | 27.4 | 0.00 | 0.00 | 0.00 | 71 | 1008.0 |
| 20260505051637 | 32 | 333 | 12.9 | 27.4 | 0.00 | 0.00 | 0.00 | 72 | 1007.9 |
| 20260505051056 | 32 | 38 | 14.5 | 27.4 | 0.00 | 0.00 | 0.00 | 71 | 1008.1 |
| 20260505050113 | 32 | 355 | 9.7 | 24.1 | 0.00 | 0.00 | 0.00 | 71 | 1008.4 |
| 20260505041507 | 32 | 321 | 3.2 | 24.1 | 0.00 | 0.00 | 0.00 | 71 | 1008.9 |
| 20260505041000 | 32 | 292 | 6.4 | 27.4 | 0.00 | 0.00 | 0.00 | 71 | 1008.8 |
| 20260505040441 | 32 | 309 | 14.5 | 27.4 | 0.00 | 0.00 | 0.00 | 71 | 1008.9 |
| 20260505035937 | 32 | 2 | 9.7 | 32.2 | 0.00 | 0.00 | 0.00 | 70 | 1008.9 |
| 20260505035423 | 33 | 191 | 12.9 | 32.2 | 0.00 | 0.00 | 0.00 | 69 | 1008.9 |
| 20260505034915 | 33 | 114 | 9.7 | 24.1 | 0.00 | 0.00 | 0.00 | 68 | 1008.9 |
| 20260505034406 | 33 | 215 | 17.7 | 32.2 | 0.00 | 0.00 | 0.00 | 70 | 1009.2 |
| 20260505033856 | 32 | 178 | 11.3 | 32.2 | 0.00 | 0.00 | 0.00 | 71 | 1009.1 |
| 20260505033400 | 31 | 287 | 9.7 | 32.2 | 0.00 | 0.00 | 0.00 | 71 | 1009.4 |
| 20260505032845 | 31 | 227 | 19.3 | 27.4 | 0.00 | 0.00 | 0.00 | 72 | 1009.4 |
| 20260505032334 | 31 | 298 | 9.7 | 24.1 | 0.00 | 0.00 | 0.00 | 73 | 1009.4 |
| 20260505031828 | 31 | 166 | 4.8 | 20.9 | 0.00 | 0.00 | 0.00 | 72 | 1009.4 |
| 20260505031326 | 31 | 7 | 3.2 | 32.2 | 0.00 | 0.00 | 0.00 | 73 | 1009.5 |
| 20260505030816 | 31 | 195 | 14.5 | 32.2 | 0.00 | 0.00 | 0.00 | 74 | 1009.5 |
| 20260505030310 | 31 | 220 | 4.8 | 16.1 | 0.00 | 0.00 | 0.00 | 73 | 1009.6 |
| 20260505025806 | 31 | 260 | 8.0 | 16.1 | 0.00 | 0.00 | 0.00 | 74 | 1009.5 |
| 20260505025245 | 31 | 25 | 0.0 | 16.1 | 0.00 | 0.00 | 0.00 | 74 | 1009.9 |
| 20260505024732 | 30 | 352 | 3.2 | 24.1 | 0.00 | 0.00 | 0.00 | 75 | 1009.7 |
| 20260505024223 | 30 | 27 | 0.0 | 24.1 | 0.00 | 0.00 | 0.00 | 76 | 1009.8 |
| 20260505023719 | 31 | 76 | 1.6 | 32.2 | 0.00 | 0.00 | 0.00 | 75 | 1009.8 |
| 20260505023540 | 30 | 205 | 3.2 | 40.2 | 0.00 | 0.00 | 0.00 | 75 | 1009.8 |
| 20260505022715 | 30 | 208 | 25.7 | 48.3 | 0.00 | 0.00 | 0.00 | 77 | 1009.7 |
| 20260505022200 | 31 | 109 | 11.3 | 48.3 | 0.00 | 0.00 | 0.00 | 75 | 1009.9 |
| 20260505021643 | 31 | 23 | 3.2 | 24.1 | 0.00 | 0.00 | 0.00 | 74 | 1009.8 |
| 20260505021132 | 30 | 12 | 3.2 | 24.1 | 0.00 | 0.00 | 0.00 | 76 | 1009.8 |
| 20260505020627 | 30 | 355 | 12.9 | 24.1 | 0.00 | 0.00 | 0.00 | 75 | 1010.0 |
| 20260505020113 | 30 | 17 | 3.2 | 24.1 | 0.00 | 0.00 | 0.00 | 77 | 1010.1 |
| 20260505020001 | 30 | 335 | 3.2 | 24.1 | 0.00 | 0.00 | 0.00 | 77 | 1010.1 |
| 20260505015059 | 29 | 38 | 4.8 | 24.1 | 0.00 | 0.00 | 0.00 | 78 | 1010.0 |
| 20260505015002 | 30 | 211 | 3.2 | 24.1 | 0.00 | 0.00 | 0.00 | 78 | 1010.2 |
| 20260505014431 | 30 | 16 | 6.4 | 24.1 | 0.00 | 0.00 | 0.00 | 78 | 1010.1 |
| 20260505013534 | 30 | 4 | 8.0 | 24.1 | 0.00 | 0.00 | 0.00 | 78 | 1010.1 |
| 20260505013025 | 30 | 334 | 17.7 | 24.1 | 0.00 | 0.00 | 0.00 | 77 | 1010.3 |
| 20260505012519 | 30 | 11 | 1.6 | 20.9 | 0.00 | 0.00 | 0.00 | 76 | 1010.2 |
| 20260505012018 | 30 | 347 | 8.0 | 24.1 | 0.00 | 0.00 | 0.00 | 76 | 1010.2 |
| 20260505011520 | 31 | 336 | 12.9 | 20.9 | 0.00 | 0.00 | 0.00 | 75 | 1009.9 |
| 20260505011000 | 31 | 39 | 0.0 | 27.4 | 0.00 | 0.00 | 0.00 | 75 | 1010.2 |
| 20260505010436 | 30 | 3 | 14.5 | 27.4 | 0.00 | 0.00 | 0.00 | 77 | 1010.2 |
| 20260505005931 | 30 | 147 | 1.6 | 27.4 | 0.00 | 0.00 | 0.00 | 77 | 1010.3 |
| 20260505005428 | 30 | 32 | 8.0 | 27.4 | 0.00 | 0.00 | 0.00 | 76 | 1010.4 |
| 20260505004924 | 30 | 28 | 0.0 | 27.4 | 0.00 | 0.00 | 0.00 | 76 | 1010.3 |
| 20260505004415 | 30 | 6 | 3.2 | 24.1 | 0.00 | 0.00 | 0.00 | 76 | 1010.2 |
| 20260505003908 | 30 | 5 | 0.0 | 20.9 | 0.00 | 0.00 | 0.00 | 76 | 1010.4 |
| 20260505003402 | 30 | 195 | 14.5 | 27.4 | 0.00 | 0.00 | 0.00 | 76 | 1010.4 |
| 20260505002856 | 30 | 168 | 12.9 | 27.4 | 0.00 | 0.00 | 0.00 | 76 | 1010.4 |
| 20260505002335 | 30 | 224 | 11.3 | 24.1 | 0.00 | 0.00 | 0.00 | 77 | 1010.3 |
| 20260505001839 | 30 | 20 | 3.2 | 16.1 | 0.00 | 0.00 | 0.00 | 73 | 1010.1 |
| 20260505001826 | 30 | 319 | 16.1 | 20.9 | 0.00 | 0.00 | 0.00 | 74 | 1010.2 |
| 20260505000810 | 30 | 46 | 1.6 | 16.1 | 0.00 | 0.00 | 0.00 | 74 | 1010.2 |
| 20260505000713 | 30 | 38 | 0.0 | 16.1 | 0.00 | 0.00 | 0.00 | 74 | 1010.2 |
| 20260504235748 | 30 | 21 | 6.4 | 16.1 | 0.00 | 0.00 | 0.00 | 74 | 1010.3 |
| 20260504235237 | 30 | 347 | 8.0 | 12.9 | 0.00 | 0.00 | 0.00 | 75 | 1010.1 |
| 20260504234728 | 31 | 51 | 0.0 | 0.0 | 0.00 | 0.00 | 0.00 | 73 | 1010.4 |
| 20260504234223 | 30 | 39 | 0.0 | 12.9 | 0.00 | 0.00 | 0.00 | 74 | 1010.2 |
| 20260504233717 | 30 | 34 | 0.0 | 20.9 | 0.00 | 0.00 | 0.00 | 75 | 1010.2 |
| 20260504233213 | 29 | 157 | 6.4 | 20.9 | 0.00 | 0.00 | 0.00 | 77 | 1010.1 |
| 20260504232649 | 29 | 221 | 4.8 | 20.9 | 0.00 | 0.00 | 0.00 | 78 | 1010.0 |
| 20260504232138 | 29 | 207 | 4.8 | 12.9 | 0.00 | 0.00 | 0.00 | 78 | 1010.1 |
| 20260504231629 | 30 | 41 | 0.0 | 12.9 | 0.00 | 0.00 | 0.00 | 76 | 1010.3 |
| 20260504231135 | 29 | 63 | 3.2 | 12.9 | 0.00 | 0.00 | 0.00 | 77 | 1010.2 |
| 20260504231020 | 28 | 48 | 0.0 | 16.1 | 0.00 | 0.00 | 0.00 | 78 | 1010.0 |
| 20260504230111 | 29 | 175 | 1.6 | 12.9 | 0.00 | 0.00 | 0.00 | 78 | 1010.0 |
| 20260504225556 | 29 | 74 | 0.0 | 12.9 | 0.00 | 0.00 | 0.00 | 77 | 1010.0 |
| 20260504225031 | 29 | 32 | 0.0 | 8.0 | 0.00 | 0.00 | 0.00 | 78 | 1010.2 |
| 20260504224523 | 28 | 41 | 0.0 | 3.2 | 0.00 | 0.00 | 0.00 | 77 | 1009.9 |
| 20260504224031 | 29 | 22 | 0.0 | 0.0 | 0.00 | 0.00 | 0.00 | 76 | 1010.1 |
| 20260504223508 | 28 | 19 | 0.0 | 0.0 | 0.00 | 0.00 | 0.00 | 78 | 1009.9 |
| 20260504222946 | 29 | 42 | 0.0 | 0.0 | 0.00 | 0.00 | 0.00 | 77 | 1009.9 |
| 20260504222438 | 28 | 35 | 0.0 | 0.0 | 0.00 | 0.00 | 0.00 | 78 | 1009.8 |
| 20260504222047 | 28 | 32 | 0.0 | 0.0 | 0.00 | 0.00 | 0.00 | 79 | 1009.9 |